QPF
0.00 0.00 0.00 0.00 0.00 0.00 0.00 0.00 0.00 0.00 0.00 0.00 0.00 0.00 0.00 0.00 0.00 0.00 0.00 0.00 0.00 0.00 0.00 0.00 0.00 0.00 0.00 0.00 0.00 0.00 0.00 0.00 0.00 0.00 0.00 0.00 0.00 0.00 0.00 0.00 0.00 0.00 0.00 0.00
0.00 0.00 0.00 0.00 0.00 0.00 0.00 0.00 0.00 0.00 0.00 0.00 0.00 0.00 0.00 0.00 0.00 0.00 0.00 0.00 0.00 0.00 0.00 0.00 0.00 0.00 0.00 0.00 0.00 0.00 0.00 0.00 0.00 0.00 0.00 0.00 0.00 0.00 0.00 0.00 0.00 0.00 0.00 0.00
0.00 0.00 0.00 0.00 0.00 0.00 0.00 0.00 0.00 0.00 0.00 0.00 0.00 0.00 0.00 0.00 0.00 0.00 0.00 0.00 0.00 0.00 0.00 0.00 0.00 0.00 0.00 0.00 0.00 0.00 0.00 0.00 0.00 0.00 0.00 0.00 0.00 0.00 0.00 0.00 0.00 0.00 0.00 0.00
0.00 0.00 0.00 0.00 0.00 0.00 0.00 0.00 0.00 0.00 0.00 0.00 0.00 0.00 0.00 0.00 0.00 0.00 0.00 0.00 0.00 0.00 0.00 0.00 0.00 0.00 0.00 0.00 0.00 0.00 0.00 0.00 0.00 0.00 0.00 0.00 0.00 0.00 0.00 0.00 0.00 0.00 0.00 0.00
0.00 0.00 0.00 0.00 0.00 0.00 0.00 0.00 0.00 0.00 0.00 0.00 0.00 0.00 0.00 0.00 0.00 0.00 0.00 0.00 0.00 0.00 0.00 0.00 0.00 0.00 0.00 0.00 0.00 0.00 0.00 0.00 0.00 0.00 0.00 0.00 0.00 0.00 0.00 0.00 0.00 0.00 0.00 0.00
0.00 0.00 0.00 0.00 0.00 0.00 0.00 0.00 0.00 0.00 0.00 0.00 0.00 0.00 0.00 0.00 0.00 0.00 0.00 0.00 0.00 0.00 0.00 0.00 0.00 0.00 0.00 0.00 0.00 0.00 0.00 0.00 0.00 0.00 0.00 0.00 0.00 0.00 0.00 0.00 0.00 0.00 0.00 0.00
0.00 0.00 0.00 0.00 0.00 0.00 0.00 0.00 0.00 0.00 0.00 0.00 0.00 0.00 0.00 0.00 0.00 0.00 0.00 0.00 0.00 0.00 0.00 0.00 0.00 0.00 0.00 0.00 0.00 0.00 0.00 0.00 0.00 0.00 0.00 0.00 0.00 0.00 0.00 0.00 0.00 0.00 0.00 0.00
0.00 0.00 0.00 0.00 0.00 0.00 0.00 0.00 0.00 0.00 0.00 0.00 0.00 0.00 0.00 0.00 0.00 0.00 0.00 0.00 0.00 0.00 0.00 0.00 0.00 0.00 0.00 0.00 0.00 0.00 0.00 0.00 0.00 0.00 0.00 0.00 0.00 0.00 0.00 0.00 0.00 0.00 0.00 0.00
0.00 0.00 0.00 0.00 0.00 0.00 0.00 0.00 0.00 0.00 0.00 0.00 0.00 0.00 0.00 0.00 0.00 0.00 0.00 0.00 0.00 0.00 0.00 0.00 0.00 0.00 0.00 0.00 0.00 0.00 0.00 0.00 0.00 0.00 0.00 0.00 0.00 0.00 0.00 0.00 0.00 0.00 0.00 0.00
0.00 0.00 0.00 0.00 0.00 0.00 0.00 0.00 0.00 0.00 0.00 0.00 0.00 0.00 0.00 0.00 0.00 0.00 0.00 0.00 0.00 0.00 0.00 0.00 0.00 0.00 0.00 0.00 0.00 0.00 0.00 0.00 0.00 0.00 0.00 0.00 0.00 0.00 0.00 0.00 0.00 0.00 0.00 0.00
0.00 0.00 0.00 0.00 0.00 0.00 0.00 0.00 0.00 0.00 0.00 0.00 0.00 0.00 0.00 0.00 0.00 0.00 0.00 0.00 0.00 0.00 0.00 0.00 0.00 0.00 0.00 0.00 0.00 0.00 0.00 0.00 0.00 0.00 0.00 0.00 0.00 0.00 0.00 0.00 0.00 0.00 0.00 0.00
0.00 0.00 0.00 0.00 0.00 0.00 0.00 0.00 0.00 0.00 0.00 0.00 0.00 0.00 0.00 0.00 0.00 0.00 0.00 0.00 0.00 0.00 0.00 0.00 0.00 0.00 0.00 0.00 0.00 0.00 0.00 0.00 0.00 0.00 0.00 0.00 0.00 0.00 0.00 0.00 0.00 0.00 0.00 0.00
0.00 0.00 0.00 0.00 0.00 0.00 0.00 0.00 0.00 0.00 0.00 0.00 0.00 0.00 0.00 0.00 0.00 0.00 0.00 0.00 0.00 0.00 0.00 0.00 0.00 0.00 0.00 0.00 0.00 0.00 0.00 0.00 0.00 0.00 0.00 0.00 0.00 0.00 0.00 0.00 0.00 0.00 0.00 0.00
0.00 0.00 0.00 0.00 0.00 0.00 0.00 0.00 0.00 0.00 0.00 0.00 0.00 0.00 0.00 0.00 0.00 0.00 0.00 0.00 0.00 0.00 0.00 0.00 0.00 0.00 0.00 0.00 0.00 0.00 0.00 0.00 0.00 0.00 0.00 0.00 0.00 0.00 0.00 0.00 0.00 0.00 0.00 0.00
0.00 0.00 0.00 0.00 0.00 0.00 0.00 0.00 0.00 0.00 0.00 0.00 0.00 0.00 0.00 0.00 0.00 0.00 0.00 0.00 0.00 0.00 0.00 0.00 0.00 0.00 0.00 0.00 0.00 0.00 0.00 0.00 0.00 0.00 0.00 0.00 0.00 0.00 0.00 0.00 0.00 0.00 0.00 0.00
0.00 0.00 0.00 0.00 0.00 0.00 0.00 0.00 0.00 0.00 0.00 0.00 0.00 0.00 0.00 0.00 0.00 0.00 0.00 0.00 0.00 0.00 0.00 0.00 0.00 0.00 0.00 0.00 0.00 0.00 0.00 0.00 0.00 0.00 0.00 0.00 0.00 0.00 0.00 0.00 0.00 0.00 0.00 0.00
0.00 0.00 0.00 0.00 0.00 0.00 0.00 0.00 0.00 0.00 0.00 0.00 0.00 0.00 0.00 0.00 0.00 0.00 0.00 0.00 0.00 0.00 0.00 0.00 0.00 0.00 0.00 0.00 0.00 0.00 0.00 0.00 0.00 0.00 0.00 0.00 0.00 0.00 0.00 0.00 0.00 0.00 0.00 0.00
0.00 0.00 0.00 0.00 0.00 0.00 0.00 0.00 0.00 0.00 0.00 0.00 0.00 0.00 0.00 0.00 0.00 0.00 0.00 0.00 0.00 0.00 0.00 0.00 0.00 0.00 0.00 0.00 0.00 0.00 0.00 0.00 0.00 0.00 0.00 0.00 0.00 0.00 0.00 0.00 0.00 0.00 0.00 0.00
0.00 0.00 0.00 0.00 0.00 0.00 0.00 0.00 0.00 0.00 0.00 0.00 0.00 0.00 0.00 0.00 0.00 0.00 0.00 0.00 0.00 0.00 0.00 0.00 0.00 0.00 0.00 0.00 0.00 0.00 0.00 0.00 0.00 0.00 0.00 0.00 0.00 0.00 0.00 0.00 0.00 0.00 0.00 0.00
0.00 0.00 0.00 0.00 0.00 0.00 0.00 0.00 0.00 0.00 0.00 0.00 0.00 0.00 0.00 0.00 0.00 0.00 0.00 0.00 0.00 0.00 0.00 0.00 0.00 0.00 0.00 0.00 0.00 0.00 0.00 0.00 0.00 0.00 0.00 0.00 0.00 0.00 0.00 0.00 0.00 0.00 0.00 0.00
0.00 0.00 0.00 0.00 0.00 0.00 0.00 0.00 0.00 0.00 0.00 0.00 0.00 0.00 0.00 0.00 0.00 0.00 0.00 0.00 0.00 0.00 0.00 0.00 0.00 0.00 0.00 0.00 0.00 0.00 0.00 0.00 0.00 0.00 0.00 0.00 0.00 0.00 0.00 0.00 0.00 0.00 0.00 0.00
0.00 0.00 0.00 0.00 0.00 0.00 0.00 0.00 0.00 0.00 0.00 0.00 0.00 0.00 0.00 0.00 0.00 0.00 0.00 0.00 0.00 0.00 0.00 0.00 0.00 0.00 0.00 0.00 0.00 0.00 0.00 0.00 0.00 0.00 0.00 0.00 0.00 0.00 0.00 0.00 0.00 0.00 0.00 0.00
0.00 0.00 0.00 0.00 0.00 0.00 0.00 0.00 0.00 0.00 0.00 0.00 0.00 0.00 0.00 0.00 0.00 0.00 0.00 0.00 0.00 0.00 0.00 0.00 0.00 0.00 0.00 0.00 0.00 0.00 0.00 0.00 0.00 0.00 0.00 0.00 0.00 0.00 0.00 0.00 0.00 0.00 0.00 0.00
0.00 0.00 0.00 0.00 0.00 0.00 0.00 0.00 0.00 0.00 0.00 0.00 0.00 0.00 0.00 0.00 0.00 0.00 0.00 0.00 0.00 0.00 0.00 0.00 0.00 0.00 0.00 0.00 0.00 0.00 0.00 0.00 0.00 0.00 0.00 0.00 0.00 0.00 0.00 0.00 0.00 0.00 0.00 0.00
0.00 0.00 0.00 0.00 0.00 0.00 0.00 0.00 0.00 0.00 0.00 0.00 0.00 0.00 0.00 0.00 0.00 0.00 0.00 0.00 0.00 0.00 0.00 0.00 0.00 0.00 0.00 0.00 0.00 0.00 0.00 0.00 0.00 0.00 0.00 0.00 0.00 0.00 0.00 0.00 0.00 0.00 0.00 0.00
0.00 0.00 0.00 0.00 0.00 0.00 0.00 0.00 0.00 0.00 0.00 0.00 0.00 0.00 0.00 0.00 0.00 0.00 0.00 0.00 0.00 0.00 0.00 0.00 0.00 0.00 0.00 0.00 0.00 0.00 0.00 0.00 0.00 0.00 0.00 0.00 0.00 0.00 0.00 0.00 0.00 0.00 0.00 0.00
MSLP
1018.51 1019.00 1018.88 1018.68 1018.56 1018.33 1018.34 1018.37 1018.24 1017.83 1017.72 1017.95 1017.35 1016.70 1015.58 1014.22 1014.90 1014.72 1015.12 1015.88 1016.38 1016.94 1017.49 1018.03 1018.77 1019.28 1019.77 1020.26 1020.62 1020.87 1020.98 1020.96 1020.92 1020.62 1020.19 1019.72 1019.43 1019.11 1018.70 1018.30 1018.04 1017.65 1017.32 1016.77
1019.06 1018.79 1018.52 1018.47 1018.52 1018.73 1018.84 1018.83 1018.57 1018.05 1018.30 1018.53 1017.82 1016.45 1015.04 1014.10 1014.03 1014.54 1015.05 1015.79 1016.56 1017.36 1018.08 1018.68 1019.17 1019.69 1020.20 1020.60 1020.89 1021.01 1021.05 1021.02 1020.84 1020.57 1020.31 1020.08 1019.52 1018.89 1018.41 1017.87 1017.60 1017.28 1016.81 1016.41
1019.01 1018.61 1018.44 1018.46 1018.59 1018.93 1018.95 1019.03 1018.92 1019.12 1018.92 1019.06 1018.87 1016.66 1014.99 1014.24 1014.36 1014.74 1015.09 1015.85 1016.80 1017.44 1018.32 1019.00 1019.54 1019.98 1020.44 1020.70 1020.90 1020.93 1020.88 1020.72 1020.48 1020.31 1020.13 1019.74 1019.21 1018.54 1017.99 1017.65 1017.49 1017.19 1016.53 1016.30
1019.10 1018.71 1018.70 1018.74 1018.92 1019.13 1019.40 1019.19 1019.34 1019.78 1020.37 1020.64 1019.88 1018.10 1015.68 1014.44 1014.50 1014.70 1015.27 1016.13 1017.12 1017.84 1018.59 1019.25 1019.73 1020.12 1020.39 1020.59 1020.76 1020.82 1020.68 1020.49 1020.25 1020.20 1020.01 1019.67 1019.22 1018.63 1018.10 1017.74 1017.30 1016.84 1016.43 1016.04
1019.06 1019.11 1019.19 1019.30 1019.28 1019.48 1019.72 1019.87 1020.08 1020.66 1021.45 1021.68 1020.74 1020.28 1015.76 1015.24 1015.08 1015.24 1015.74 1016.41 1017.29 1018.14 1018.92 1019.46 1019.86 1020.15 1020.43 1020.58 1020.59 1020.64 1020.60 1020.44 1020.24 1020.12 1019.95 1019.56 1019.20 1018.85 1018.14 1017.62 1017.12 1016.64 1016.17 1015.88
1019.78 1019.60 1019.79 1019.75 1019.95 1019.91 1020.15 1020.44 1020.64 1021.42 1021.87 1022.11 1020.72 1020.33 1017.02 1016.14 1016.04 1016.18 1016.60 1017.18 1017.89 1018.39 1018.94 1019.46 1019.96 1020.21 1020.36 1020.43 1020.46 1020.50 1020.36 1020.18 1020.07 1019.89 1019.69 1019.45 1019.18 1018.73 1018.24 1017.72 1017.06 1016.45 1016.07 1015.58
1020.39 1020.28 1020.55 1020.47 1020.56 1020.68 1020.82 1021.07 1021.46 1022.03 1022.44 1021.42 1020.63 1020.38 1016.77 1016.39 1016.68 1017.38 1017.88 1018.00 1018.36 1018.79 1019.20 1019.60 1019.85 1020.02 1020.19 1020.41 1020.52 1020.51 1020.35 1020.07 1019.86 1019.66 1019.47 1019.24 1018.93 1018.67 1018.22 1017.67 1016.99 1016.49 1015.97 1015.53
1021.82 1021.33 1021.22 1021.36 1021.61 1021.51 1021.59 1021.73 1022.01 1022.20 1022.45 1021.65 1020.66 1019.03 1016.52 1016.50 1017.24 1017.91 1018.71 1018.76 1018.71 1019.10 1019.36 1019.55 1019.76 1020.14 1020.44 1020.44 1020.54 1020.44 1020.28 1020.00 1019.78 1019.67 1019.39 1019.14 1018.81 1018.41 1017.94 1017.43 1016.91 1016.41 1016.03 1015.54
1022.77 1022.14 1021.81 1021.92 1022.02 1022.08 1022.23 1022.34 1022.63 1022.59 1022.76 1022.11 1019.24 1017.60 1016.51 1016.83 1017.78 1018.34 1018.71 1019.03 1019.15 1019.31 1019.46 1019.70 1020.08 1020.44 1020.59 1020.67 1020.55 1020.56 1020.45 1020.33 1020.03 1019.74 1019.37 1018.94 1018.50 1018.00 1017.42 1016.96 1016.70 1016.24 1015.75 1015.20
1022.75 1022.72 1022.23 1022.54 1022.49 1022.47 1022.27 1022.60 1022.89 1022.85 1022.72 1021.58 1019.35 1018.89 1018.10 1018.28 1019.09 1019.40 1019.68 1019.40 1019.28 1019.33 1019.68 1020.11 1020.44 1020.72 1020.83 1020.83 1020.78 1020.72 1020.65 1020.43 1020.03 1019.51 1019.10 1018.63 1018.18 1017.56 1017.13 1016.93 1016.62 1016.12 1015.38 1014.80
1022.67 1023.32 1022.96 1022.85 1022.58 1022.33 1022.78 1022.61 1022.82 1022.93 1022.89 1022.49 1021.39 1018.80 1018.34 1019.20 1020.07 1020.30 1019.94 1019.46 1019.45 1019.59 1020.00 1020.35 1020.72 1020.99 1021.06 1020.93 1021.09 1020.98 1020.68 1020.40 1019.81 1019.31 1018.82 1018.36 1017.87 1017.36 1017.15 1016.80 1016.28 1015.68 1015.07 1014.62
1022.68 1023.13 1023.42 1022.74 1022.51 1022.34 1022.30 1022.44 1022.69 1023.05 1023.64 1023.85 1023.39 1019.84 1018.48 1019.68 1020.54 1020.93 1019.90 1019.51 1019.57 1019.90 1020.15 1020.51 1020.96 1021.14 1021.20 1021.42 1021.42 1021.10 1020.67 1020.14 1019.65 1019.15 1018.64 1018.17 1017.73 1017.29 1017.06 1016.52 1015.93 1015.39 1014.90 1014.47
1022.70 1023.11 1023.51 1022.91 1023.01 1022.59 1022.40 1022.54 1022.95 1023.37 1023.81 1024.16 1023.95 1020.41 1019.25 1020.42 1020.48 1020.03 1019.85 1019.50 1019.71 1019.97 1020.33 1020.81 1021.31 1021.44 1021.46 1021.56 1021.43 1021.05 1020.58 1020.14 1019.62 1019.11 1018.55 1018.14 1017.71 1017.26 1017.11 1016.55 1015.68 1015.32 1015.20 1014.73
1022.80 1023.24 1023.31 1022.98 1022.32 1022.27 1022.39 1022.52 1023.02 1023.53 1024.22 1024.12 1023.39 1021.47 1019.72 1020.19 1020.43 1019.73 1019.58 1019.59 1019.75 1020.10 1020.44 1020.77 1021.22 1021.38 1021.34 1021.45 1021.37 1020.92 1020.49 1020.08 1019.58 1019.09 1018.62 1018.22 1017.79 1017.40 1017.08 1016.72 1015.99 1015.45 1015.03 1014.55
1023.11 1023.43 1023.20 1022.61 1021.95 1021.85 1021.87 1022.13 1022.79 1023.49 1023.51 1023.98 1023.22 1022.82 1020.56 1020.80 1020.62 1020.18 1020.02 1019.75 1019.71 1019.79 1020.14 1020.50 1020.93 1021.25 1021.12 1021.11 1021.07 1020.58 1020.21 1019.84 1019.48 1019.13 1018.74 1018.37 1017.78 1017.30 1017.00 1016.79 1016.30 1015.86 1015.41 1014.90
1023.37 1023.63 1023.62 1022.77 1021.81 1021.92 1022.02 1021.95 1022.55 1023.36 1023.88 1023.83 1023.57 1022.39 1021.32 1020.13 1020.36 1020.24 1019.99 1019.73 1019.86 1019.79 1019.92 1020.02 1020.46 1020.84 1020.69 1020.62 1020.66 1020.26 1019.85 1019.56 1019.34 1019.01 1018.69 1018.37 1017.85 1017.40 1017.08 1016.74 1016.53 1016.00 1015.80 1015.42
1023.64 1024.14 1024.35 1023.43 1022.49 1022.28 1022.38 1022.17 1022.97 1023.78 1024.01 1024.07 1023.87 1022.43 1021.44 1020.61 1020.31 1020.22 1020.00 1020.01 1019.77 1019.54 1019.54 1019.61 1019.80 1019.90 1019.77 1019.84 1019.79 1019.80 1019.48 1019.32 1019.12 1018.79 1018.50 1018.22 1017.79 1017.57 1017.30 1017.01 1016.77 1016.34 1015.98 1015.75
1023.64 1024.31 1024.62 1024.39 1023.24 1022.68 1022.20 1022.57 1023.20 1023.75 1023.75 1023.82 1023.47 1022.22 1021.49 1021.04 1020.17 1020.15 1019.95 1020.18 1019.44 1019.40 1019.16 1019.09 1019.19 1019.09 1019.08 1019.14 1019.17 1019.07 1019.00 1018.94 1018.76 1018.50 1018.31 1018.04 1017.73 1017.50 1017.30 1017.11 1016.96 1016.82 1016.50 1016.16
1023.75 1024.21 1025.06 1025.13 1024.79 1022.82 1021.85 1022.46 1022.87 1023.21 1023.16 1022.88 1022.95 1022.21 1021.24 1020.38 1020.08 1019.12 1019.13 1019.36 1019.44 1019.18 1018.78 1018.47 1018.37 1018.37 1018.38 1018.53 1018.57 1018.59 1018.45 1018.36 1018.26 1018.09 1017.97 1017.80 1017.57 1017.41 1017.27 1017.19 1017.03 1016.88 1016.77 1016.51
1023.91 1024.29 1025.13 1025.31 1024.89 1022.88 1021.60 1021.27 1021.63 1022.30 1022.29 1021.81 1022.35 1022.00 1021.34 1020.24 1019.87 1018.71 1018.11 1018.23 1018.20 1017.99 1017.90 1017.95 1018.02 1018.03 1017.85 1017.73 1017.94 1018.06 1017.87 1017.81 1017.66 1017.40 1017.38 1017.49 1017.49 1017.43 1017.27 1017.17 1016.99 1016.86 1016.72 1016.51
1024.37 1024.52 1025.05 1025.15 1024.33 1022.25 1021.02 1021.13 1021.65 1021.96 1021.76 1021.13 1021.74 1021.29 1020.86 1020.52 1019.65 1018.05 1017.63 1017.28 1017.32 1016.98 1016.96 1017.31 1017.57 1017.38 1016.93 1017.03 1017.28 1017.36 1017.35 1017.05 1016.89 1017.04 1017.03 1017.05 1017.07 1017.13 1017.01 1016.97 1016.93 1016.88 1016.77 1016.53
1023.34 1023.97 1024.29 1024.08 1023.51 1021.86 1020.53 1020.93 1021.17 1020.61 1020.24 1020.52 1020.50 1020.28 1020.04 1019.16 1018.28 1017.68 1017.03 1016.58 1016.30 1016.14 1015.96 1016.16 1016.62 1016.48 1016.37 1016.64 1016.83 1016.55 1016.43 1016.03 1016.37 1016.59 1016.75 1016.91 1017.00 1016.87 1016.85 1017.11 1016.96 1016.88 1016.71 1016.57
1022.60 1021.95 1021.96 1022.13 1021.26 1020.18 1019.99 1020.01 1020.00 1020.27 1020.25 1020.05 1020.07 1019.79 1019.29 1018.46 1017.64 1017.01 1016.39 1016.10 1015.64 1015.46 1015.30 1015.26 1015.40 1015.41 1015.42 1015.64 1015.94 1015.93 1015.18 1015.69 1016.02 1016.29 1016.42 1016.60 1016.81 1016.71 1016.66 1016.70 1016.60 1016.67 1016.52 1016.33
1021.32 1021.16 1021.26 1021.15 1020.63 1020.05 1019.76 1020.01 1020.07 1020.20 1020.22 1020.05 1019.84 1019.49 1018.99 1018.36 1017.55 1016.72 1016.26 1015.72 1015.34 1014.90 1014.68 1014.51 1014.61 1014.64 1014.42 1014.59 1014.80 1014.46 1014.70 1015.04 1015.60 1015.81 1015.88 1016.01 1016.23 1016.22 1016.35 1016.25 1016.30 1016.27 1016.11 1016.00
1021.00 1021.02 1021.05 1020.90 1020.28 1019.85 1019.57 1019.62 1020.09 1020.20 1020.18 1019.98 1019.72 1019.45 1018.95 1018.39 1017.59 1017.08 1016.33 1015.77 1015.26 1014.82 1014.37 1014.16 1013.99 1013.72 1013.36 1013.48 1013.55 1013.79 1014.08 1014.58 1014.83 1015.00 1015.12 1015.32 1015.51 1015.66 1015.74 1015.73 1015.65 1015.63 1015.43 1015.44
1020.64 1020.62 1020.85 1020.86 1021.03 1021.27 1020.62 1020.33 1020.67 1020.64 1020.41 1020.35 1020.04 1019.35 1018.86 1018.59 1017.94 1017.40 1016.75 1016.12 1015.59 1014.93 1014.42 1013.91 1013.51 1013.19 1012.76 1012.74 1012.73 1012.94 1013.23 1013.66 1014.07 1014.36 1014.51 1014.56 1014.77 1014.93 1015.11 1015.22 1015.09 1014.83 1014.55 1014.44
Thickness
5534 5533 5531 5532 5527 5537 5538 5533 5530 5532 5530 5526 5531 5528 5549 5564 5546 5547 5545 5534 5530 5525 5521 5515 5508 5503 5497 5490 5484 5479 5474 5471 5468 5467 5465 5464 5460 5457 5455 5453 5452 5452 5452 5455
5524 5521 5529 5526 5522 5514 5513 5512 5510 5519 5510 5509 5510 5525 5541 5551 5550 5537 5530 5526 5519 5512 5503 5499 5495 5490 5483 5476 5471 5467 5463 5459 5456 5453 5450 5446 5444 5441 5437 5436 5435 5436 5437 5435
5517 5529 5520 5521 5518 5510 5506 5502 5505 5506 5499 5490 5481 5513 5523 5539 5527 5524 5520 5513 5506 5503 5494 5487 5483 5477 5469 5466 5461 5457 5452 5448 5444 5440 5436 5432 5429 5427 5426 5422 5419 5417 5418 5417
5504 5510 5511 5510 5506 5495 5483 5489 5491 5486 5462 5479 5466 5491 5525 5532 5522 5521 5516 5507 5498 5490 5482 5477 5472 5467 5462 5459 5452 5446 5441 5435 5431 5425 5420 5415 5413 5411 5409 5407 5404 5401 5398 5397
5511 5504 5498 5486 5493 5484 5471 5472 5471 5459 5435 5418 5457 5437 5510 5510 5538 5523 5510 5501 5492 5480 5470 5466 5460 5459 5454 5449 5442 5435 5428 5422 5417 5411 5406 5403 5399 5396 5394 5390 5387 5382 5379 5374
5484 5485 5483 5478 5470 5469 5461 5456 5457 5430 5426 5410 5436 5446 5500 5500 5486 5510 5502 5490 5478 5472 5465 5461 5455 5451 5447 5440 5433 5424 5417 5411 5405 5401 5396 5392 5386 5383 5378 5371 5366 5360 5356 5353
5480 5478 5464 5459 5466 5458 5446 5454 5459 5437 5397 5450 5429 5431 5501 5478 5469 5469 5473 5471 5458 5456 5456 5453 5450 5446 5442 5434 5423 5414 5407 5403 5398 5393 5388 5382 5377 5371 5362 5350 5345 5338 5334 5331
5459 5460 5455 5446 5433 5432 5438 5439 5458 5463 5431 5424 5431 5432 5510 5466 5453 5440 5438 5439 5450 5452 5450 5447 5445 5439 5432 5427 5417 5408 5401 5396 5391 5384 5380 5374 5368 5360 5349 5338 5330 5323 5319 5318
5416 5444 5443 5434 5429 5431 5427 5428 5410 5407 5375 5409 5455 5474 5482 5480 5454 5448 5445 5456 5454 5448 5443 5439 5436 5430 5424 5417 5413 5405 5398 5391 5384 5377 5372 5367 5362 5354 5341 5331 5321 5317 5314 5314
5429 5425 5444 5425 5423 5421 5421 5409 5416 5404 5427 5442 5464 5435 5474 5455 5450 5447 5442 5450 5447 5442 5437 5432 5428 5424 5419 5414 5407 5401 5394 5386 5379 5374 5369 5365 5359 5350 5334 5322 5312 5311 5312 5312
5429 5418 5428 5420 5420 5421 5408 5413 5403 5402 5398 5433 5430 5470 5440 5440 5420 5437 5439 5447 5437 5434 5429 5424 5422 5418 5412 5409 5401 5394 5389 5382 5379 5373 5368 5364 5357 5347 5331 5318 5312 5311 5313 5312
5423 5414 5393 5414 5405 5407 5406 5408 5405 5422 5413 5365 5375 5442 5419 5412 5394 5393 5430 5444 5435 5429 5424 5420 5416 5410 5407 5402 5396 5390 5386 5381 5379 5373 5367 5362 5357 5347 5335 5323 5318 5318 5319 5319
5418 5421 5396 5416 5409 5402 5404 5395 5385 5375 5370 5380 5404 5442 5400 5381 5409 5423 5428 5436 5429 5430 5423 5415 5406 5404 5402 5398 5395 5390 5386 5382 5378 5372 5366 5360 5356 5348 5338 5331 5329 5325 5320 5320
5419 5410 5400 5417 5433 5405 5405 5393 5384 5392 5372 5360 5378 5413 5459 5440 5441 5451 5446 5429 5419 5418 5416 5409 5406 5405 5401 5397 5394 5392 5389 5383 5379 5373 5367 5360 5355 5349 5341 5335 5332 5328 5326 5327
5407 5387 5379 5396 5413 5415 5412 5412 5393 5390 5384 5423 5390 5368 5439 5434 5438 5438 5411 5415 5429 5431 5424 5417 5406 5407 5401 5398 5396 5393 5390 5387 5381 5375 5367 5361 5357 5352 5345 5339 5335 5331 5329 5330
5396 5384 5381 5391 5399 5392 5397 5411 5407 5400 5397 5392 5352 5416 5426 5407 5383 5405 5431 5432 5432 5431 5427 5420 5409 5406 5405 5400 5397 5396 5393 5389 5383 5377 5370 5364 5360 5355 5350 5345 5340 5337 5333 5332
5388 5377 5370 5375 5386 5399 5406 5391 5366 5355 5336 5366 5382 5407 5375 5426 5435 5420 5431 5417 5428 5432 5428 5422 5419 5415 5411 5406 5407 5400 5396 5391 5387 5381 5377 5372 5366 5359 5353 5349 5345 5342 5338 5335
5378 5375 5367 5365 5373 5424 5398 5335 5347 5357 5357 5360 5373 5398 5411 5416 5425 5412 5415 5411 5429 5427 5424 5426 5422 5423 5417 5413 5408 5406 5403 5398 5392 5387 5382 5377 5372 5365 5359 5353 5348 5344 5342 5340
5377 5377 5357 5352 5330 5402 5412 5367 5372 5390 5401 5370 5382 5399 5401 5402 5390 5428 5406 5400 5415 5422 5425 5426 5425 5423 5420 5415 5411 5407 5403 5400 5396 5391 5386 5381 5377 5371 5366 5360 5354 5350 5345 5344
5377 5368 5361 5334 5356 5381 5404 5386 5368 5363 5395 5387 5369 5392 5384 5412 5427 5426 5422 5413 5432 5427 5427 5427 5425 5421 5421 5419 5414 5411 5409 5405 5401 5398 5393 5386 5380 5375 5370 5366 5362 5358 5354 5351
5339 5342 5340 5328 5352 5377 5386 5380 5373 5384 5404 5387 5368 5388 5390 5409 5416 5435 5435 5437 5423 5429 5430 5426 5423 5424 5426 5421 5416 5414 5410 5408 5406 5400 5396 5392 5387 5382 5378 5373 5369 5364 5361 5359
5345 5335 5328 5324 5335 5372 5386 5383 5398 5397 5385 5383 5382 5384 5395 5404 5414 5419 5428 5434 5436 5436 5433 5431 5427 5428 5426 5421 5418 5418 5415 5416 5408 5402 5397 5392 5386 5384 5381 5374 5372 5368 5365 5362
5368 5367 5386 5362 5370 5380 5375 5394 5384 5376 5385 5386 5391 5395 5399 5411 5417 5423 5429 5432 5436 5436 5436 5434 5432 5431 5428 5423 5419 5417 5423 5413 5406 5399 5395 5390 5386 5384 5380 5376 5374 5371 5367 5367
5358 5368 5377 5372 5377 5379 5379 5371 5374 5372 5376 5379 5384 5389 5395 5404 5411 5419 5423 5428 5430 5433 5434 5434 5430 5428 5429 5425 5422 5423 5419 5413 5404 5399 5396 5392 5386 5385 5380 5378 5375 5371 5370 5368
5359 5365 5369 5370 5374 5373 5379 5380 5371 5369 5370 5372 5374 5378 5384 5390 5398 5405 5411 5415 5420 5424 5426 5425 5427 5430 5431 5427 5426 5420 5415 5411 5405 5401 5398 5394 5390 5385 5382 5379 5376 5373 5372 5369
5354 5358 5360 5362 5358 5359 5366 5366 5363 5362 5364 5364 5366 5370 5375 5378 5385 5391 5396 5401 5406 5411 5415 5420 5421 5423 5427 5424 5424 5419 5413 5410 5407 5402 5397 5395 5390 5385 5381 5377 5376 5376 5376 5374